Tracking 19817 objects as of 18-Aug-2019
HD Live streaming from Space Station
objects crossing your sky now

USA 24

Track USA 24 now!
10-day predictions
USA 24 is classified as:


NORAD ID: 18010
Int'l Code: 1987-043F
Perigee: 408.3 km
Apogee: 1,783.0 km
Inclination: 63.3 °
Period: 107.0 minutes
Semi major axis: 7466 km
RCS: Unknown
Launch date: May 15, 1987
Source: United States (US)
Launch site: AIR FORCE WESTERN TEST RANGE (AFWTR)
aabbcc
Your satellite tracking list
Your tracking list is empty




NASA's NSSDC Master Catalog

Two Line Element Set (TLE):
1 18010U 87043F   19228.37524758 +.00000304 +00000-0 +47613-4 0  9997
2 18010 063.3045 214.2150 0920574 058.2564 310.4841 13.45588130006190
Source of the keplerian elements: McCants